Location: *
(49.7167°N, 11.9000°E)
Time: 22:04:15
(UTC+00:00)

Daily predictions for brighter satellites

Satellite Brightness Start Highest point End
(mag) Time Altitude Azimuth Time Altitude Azimuth Time Altitude Azimuth
NOAA 11 4.2 17:47:51 10° SSE 17:53:19 71° ENE 17:58:48 10° N
Cosmos 1743 2.7 17:52:10 10° S 17:56:00 79° E 17:59:53 10° NNE
USA 186 3.1 17:53:57 10° SE 17:56:45 25° ENE 17:59:37 10° N
Cosmos 1461 4.4 17:54:23 10° SSE 17:56:47 16° ESE 17:59:11 10° ENE
Cosmos 2360 Rocket 2.4 17:51:43 10° NNW 17:57:23 78° WSW 18:03:02 10° SSE
Resurs 01 Rocket 3.5 17:55:49 10° E 17:58:16 15° ENE 18:00:44 10° NNE
DMSP B5D1-3 4.5 17:59:42 10° NNE 18:04:49 75° ESE 18:09:54 10° S
ASTEX 1 4.2 18:00:45 10° NNE 18:05:04 30° E 18:09:22 10° SSE
GP-B 3.3 18:02:25 10° N 18:06:46 49° E 18:11:04 10° SSE
Okean 2 Rocket 3.1 18:02:19 10° S 18:06:47 85° E 18:11:19 10° N
Cosmos 1842 3.3 18:03:54 10° N 18:07:52 64° ENE 18:11:47 10° SSE
Okean 1 Rocket 3.9 18:05:55 10° SSE 18:09:35 27° E 18:13:16 10° NNE
COSMOS 2455 2.9 18:03:31 10° NW 18:09:36 86° NE 18:15:38 10° SE
CZ-4 R/B 3.7 18:08:26 10° SSW 18:11:46 27° W 18:15:09 10° NW
Cosmos 2315 Rocket 4.5 18:05:34 10° SSW 18:11:48 68° WNW 18:18:03 10° N
SL-16 R/B 4.3 18:08:31 10° NW 18:13:17 28° WSW 18:18:03 10° SSW
Meteor 2-9 Rocket 4.4 18:07:45 10° S 18:13:24 56° E 18:18:56 10° NNE
COSMOS 2487 3.6 18:11:18 10° SW 18:14:40 47° WNW 18:18:04 10° NNE
Cosmos 1833 4.2 18:10:00 10° SSW 18:15:41 71° ESE 18:21:20 10° NNE
Timation 2 Rocket 4.3 18:10:41 10° S 18:16:57 47° ESE 18:23:01 10° NE
Ariane Rocket 3.3 18:13:42 10° S 18:18:45 72° WSW 18:23:50 10° NNW
CZ-2C R/B 4.0 18:19:40 10° NNE 18:23:59 44° E 18:28:13 10° S
Nadezhda 1 Rocket 4.1 18:18:22 10° SSE 18:24:12 52° E 18:30:05 10° NNE
ERBS 4.2 18:21:48 10° NW 18:24:36 23° N 18:27:23 10° NE
Cosmos 407 Rocket 4.4 18:23:53 10° N 18:28:28 31° NE 18:31:59 15° ESE
SPOT 3 Rocket 3.6 18:24:21 10° SSE 18:29:24 60° ENE 18:34:29 10° N
NOSS 3-4 (A) 4.0 18:24:32 10° NW 18:31:20 62° NE 18:37:42 15° ESE
NOSS 3-4 (C) 4.0 18:24:38 10° NW 18:31:25 61° NE 18:37:46 15° ESE
Cosmos 2333 Rocket 2.2 18:26:13 10° NNW 18:31:56 75° ENE 18:37:39 10° SE
Cosmos 1536 Rocket 3.9 18:27:45 10° NNW 18:32:05 69° W 18:36:23 10° S
ARGOS 3.5 18:27:28 10° SE 18:32:34 47° ENE 18:37:43 10° N
NOSS 3-3 (A) 3.9 18:36:08 10° SSW 18:42:05 73° SE 18:48:48 10° NE
NOSS 3-3 (C) 3.9 18:36:15 10° SSW 18:42:11 72° SE 18:48:54 10° NE
Cosmos 1892 Rocket 4.4 18:38:44 10° N 18:42:47 32° ENE 18:45:07 20° ESE
Cosmos 1025 Rocket 3.5 18:38:37 10° NNW 18:42:51 63° W 18:47:03 10° S
Meteor 2-15 Rocket 4.4 18:37:59 10° S 18:44:04 73° E 18:50:14 10° NNE
Meteor 2-15 4.5 18:40:04 10° S 18:46:13 90° E 18:52:25 10° N
Aureole 1 Rocket 3.6 18:40:58 10° NNW 18:46:50 74° WSW 18:51:12 10° SSE
NOSS 0 Rocket 4.0 18:42:54 10° NNW 18:49:05 65° NE 18:53:46 18° SE
Cosmos 2341 Rocket 4.1 18:42:58 10° N 18:49:08 55° ENE 18:54:49 12° SSE
Cosmos 2237 Rocket 2.7 18:44:15 10° NNW 18:49:46 46° NE 18:53:17 21° ESE
Cosmos 1441 Rocket 3.1 18:48:44 10° S 18:52:33 71° E 18:56:21 10° NNE
SJ-6B 3.0 18:49:02 10° SSE 18:53:10 83° WSW 18:57:19 10° NNW
BREEZE-M DEB (TANK) 3.5 18:52:00 10° W 18:56:06 79° N 19:03:23 16° E
Spot 2 Rocket 4.4 18:54:17 22° ESE 18:56:29 31° ENE 19:00:54 10° N
Cosmos 2181 Rocket 4.5 18:51:05 10° SSE 18:56:44 39° E 19:02:31 10° NNE
Cosmos 1980 3.9 18:52:36 10° NNW 18:58:10 54° NE 19:01:30 24° SE
USA 234 4.0 18:52:18 10° ENE 18:58:30 47° N 19:04:44 10° WNW
In-Cosmos 22 4.3 18:54:05 10° N 18:59:18 53° ENE 19:02:47 21° SE
CZ-4C R/B 4.2 18:55:06 10° WNW 19:00:01 28° NNW 19:05:43 10° NE
Cosmos 1544 3.0 18:56:48 10° S 19:00:22 83° W 19:04:00 10° N
H-2A R/B 1.9 18:57:11 12° SSE 19:01:46 81° ENE 19:06:47 10° NNW
MetOp-A 4.3 18:58:13 20° SE 19:01:49 54° ENE 19:07:03 10° N
SAR-Lupe-2 4.4 18:58:45 10° N 19:02:16 53° WNW 19:05:45 10° SSW
SL-08 RB Rocket 3.8 18:59:39 21° SE 19:02:39 59° ENE 19:07:16 10° N
Cosmos 1140 Rocket 4.1 18:59:28 10° NNW 19:04:23 40° ENE 19:06:32 27° ESE
Cosmos 1707 2.7 19:05:17 10° NNW 19:09:13 83° W 19:12:03 18° S
Cosmos 2218 Rocket 4.2 19:07:40 10° N 19:13:55 52° ENE 19:17:21 26° SE
Cosmos 1674 3.8 19:11:26 10° NNE 19:14:23 27° ENE 19:14:23 27° ENE
Cosmos 2154 Rocket 4.4 19:09:02 10° NNW 19:15:11 65° W 19:21:17 10° S
ATLAS 2AS CENTAUR R/B 3.1 19:07:31 10° NW 19:15:13 69° SW 19:20:32 19° SSE
SL-16 R/B 3.1 19:12:06 10° NNW 19:17:14 33° NE 19:19:18 26° E
SL-8 R/B 3.8 19:13:29 10° WSW 19:18:09 54° SSE 19:19:44 37° ESE
ADEOS Rocket 3.4 19:11:17 10° NNE 19:18:23 69° ESE 19:26:02 10° S
COSMOS 2428 3.5 19:17:16 10° NW 19:22:45 50° WSW 19:27:35 13° S
Cosmos 2366 rocket 4.1 19:16:57 10° N 19:23:12 56° ENE 19:26:19 30° SE
Meteor 1-15 Rocket 4.2 19:21:02 10° S 19:26:44 72° E 19:32:35 10° NNE
USA 186 4.1 19:24:49 10° SSW 19:27:38 25° W 19:30:31 10° NW
Cosmos 1544 Rocket 4.1 19:28:08 40° E 19:28:08 40° E 19:32:08 10° NNE
Cosmos 1455 Rocket 3.2 19:28:37 47° ESE 19:29:05 49° E 19:33:23 10° NNE
Cosmos 2219 Rocket 3.1 19:26:01 10° NW 19:31:17 44° WSW 19:35:48 14° S
CZ-2C R/B 3.0 19:29:08 28° SSE 19:31:57 87° ENE 19:37:25 10° NNW
Resurs 01 Rocket 1.6 19:32:17 35° S 19:34:09 84° WSW 19:38:38 10° NNW
Cosmos 389 Rocket 2.8 19:31:45 10° NNW 19:35:10 61° W 19:35:51 48° SSW
Terra 3.6 19:35:19 18° ENE 19:35:19 18° ENE 19:38:25 10° NNE
Cosmos 1461 3.0 19:31:24 10° SW 19:35:24 70° NW 19:39:22 10° NE
Cosmos 1190 Rocket 3.9 19:30:07 10° NNW 19:35:28 86° ENE 19:37:29 39° SSE
SL-8 Rocket 3.9 19:29:43 10° N 19:35:58 83° E 19:39:34 27° SSE
Resurs 1-3 4.0 19:34:41 25° S 19:37:08 61° W 19:41:30 10° NNW
BREEZE M DEB (TANK) 2.1 19:35:32 10° W 19:38:01 89° SSE 19:38:44 57° E
RESURS DK-1 4.3 19:35:58 10° N 19:38:50 18° NE 19:39:02 18° NE
Meteor 1-4 Rocket 2.5 19:37:10 10° NNW 19:40:46 73° W 19:41:04 68° SW
Cosmos 1626 Rocket 3.9 19:42:31 10° N 19:46:24 47° ENE 19:46:24 47° ENE
DMSP B5D2-2 4.0 19:41:30 10° NNE 19:46:47 63° ESE 19:48:20 44° SSE
Cosmos 1437 Rocket 2.9 19:46:31 10° N 19:49:50 59° NNE 19:49:50 59° NNE
Cosmos 2219 3.1 19:44:53 10° SSW 19:50:37 75° ESE 19:56:23 10° NNE
Cosmos 1959 Rocket 4.4 19:45:36 10° N 19:51:45 89° E 19:54:27 36° S
CZ-2C R/B 3.0 19:47:05 10° NNE 19:52:13 45° E 19:52:13 45° E
Cosmos 1023 Rocket 4.4 19:48:42 10° NNW 19:53:55 87° WSW 19:55:03 56° SSE
Cosmos 2227 Rocket 2.4 19:55:32 48° E 19:55:32 48° E 20:00:22 10° NE
SPOT 1/Viking Rocket 3.8 20:00:14 49° ENE 20:00:24 50° ENE 20:05:24 10° N
ERBS 3.8 19:58:28 10° NW 20:00:58 33° N 20:00:58 33° N
Cosmos 2056 Rocket 3.4 20:00:17 33° SSW 20:02:47 79° ESE 20:08:14 10° NNE
Cosmos 1602 Rocket 3.9 20:01:21 10° N 20:04:59 52° NNE 20:04:59 52° NNE
Meteor 1-24 Rocket 3.7 20:00:03 10° NNW 20:05:46 86° ENE 20:07:05 56° SSE
Cosmos 2297 Rocket 2.1 20:06:20 63° ESE 20:06:20 63° ESE 20:11:56 10° NE
Cosmos 405 Rocket 3.3 20:07:25 52° WNW 20:07:25 52° WNW 20:10:55 10° N
Cosmos 407 Rocket 4.3 20:05:45 10° NW 20:10:38 45° WSW 20:12:11 35° SSW
Meteor 2-5 Rocket 4.1 20:05:57 10° NNW 20:11:40 65° W 20:13:50 39° SSW
Cosmos 1624 Rocket 4.0 20:13:24 36° SSW 20:15:35 81° WNW 20:20:50 10° NNE
Cosmos 2333 Rocket 4.3 20:11:28 10° NW 20:15:37 21° W 20:19:45 10° SSW
Cosmos 1741 Rocket 4.4 20:11:09 10° NNW 20:16:13 50° NE 20:16:13 50° NE
MetOp-B 4.3 20:15:24 53° SSW 20:16:33 69° WSW 20:21:55 10° NNW
SPOT 5 3.4 20:23:09 48° NNE 20:23:09 48° NNE 20:27:07 10° N
Cosmos 1943 4.5 20:18:47 10° NNW 20:23:38 27° NE 20:24:04 27° NE
Cosmos 1626 4.2 20:22:58 10° N 20:24:25 21° N 20:24:25 21° N
Cosmos 1954 Rocket 4.2 20:25:19 10° NNW 20:30:29 60° WSW 20:30:43 59° WSW
Cosmos 2237 Rocket 3.3 20:28:34 10° NW 20:33:44 36° WSW 20:35:07 32° SW
Spot 2 Rocket 4.3 20:34:28 39° SW 20:35:20 42° W 20:40:08 10° NNW
Meteor 1-22 Rocket 4.4 20:36:06 56° SSW 20:37:26 77° WNW 20:43:36 10° N
ERS-1 Rocket 3.1 20:40:20 70° NNW 20:40:20 70° NNW 20:44:49 10° NNW
USA 234 3.5 20:39:20 47° ENE 20:40:59 61° NNE 20:47:26 10° WNW
Landsat 7 4.2 20:41:53 60° NW 20:41:53 60° NW 20:45:53 10° NNW
Cosmos 1934 Rocket 4.2 20:37:40 10° N 20:43:07 55° NE 20:43:07 55° NE
CZ-4C R/B 4.4 20:45:23 10° NW 20:50:38 26° N 20:55:55 12° ENE
Cosmos 1603 4.3 20:50:47 10° NNW 20:55:34 48° NNE 20:55:34 48° NNE
Nadezhda 3 Rocket 3.9 20:59:21 81° NNW 20:59:21 81° NNW 21:05:17 10° N
SL-16 R/B 2.7 20:56:07 10° NW 21:01:11 52° W 21:01:11 52° W
Resurs 01 Rocket 4.5 21:10:24 10° W 21:11:22 11° W 21:12:20 10° WNW
Terra 3.0 21:14:13 39° NNW 21:14:13 39° NNW 21:17:16 10° NNW
Cosmos 1605 Rocket 4.4 21:09:03 10° N 21:14:27 58° NNE 21:14:27 58° NNE
Cosmos 2082 4.3 21:19:47 52° N 21:19:47 52° N 21:24:18 10° NNE
Cosmos 1821 Rocket 4.4 21:12:42 10° NNW 21:18:36 56° W 21:18:36 56° W
CZ-2C R/B 4.1 21:27:39 10° N 21:32:33 34° WNW 21:33:43 31° W
Cosmos 2227 Rocket 3.6 21:37:14 28° W 21:39:10 35° NW 21:44:22 10° NNE
Cosmos 2297 Rocket 3.9 21:48:00 20° W 21:50:49 29° NW 21:55:45 10° NNE
Cosmos 2263 Rocket 4.1 22:14:37 23° NE 22:14:37 23° NE 22:16:37 10° NNE
USA 234 4.2 22:26:41 37° WNW 22:26:41 37° WNW 22:30:33 10° WNW
CZ-4C R/B 3.5 22:34:15 10° NW 22:40:48 48° NE 22:41:03 47° NE
Mayak 1.8 22:55:57 10° N 22:56:26 13° NNW 22:56:26 13° NNW
ATLAS CENTAUR R/B 4.3 23:17:12 17° NNE 23:17:12 17° NNE 23:18:21 10° NNE
Cosmos 2082 Rocket 4.2 23:14:24 10° NNW 23:18:54 23° NE 23:19:35 22° NE
Cosmos 1844 Rocket 4.5 23:26:16 26° NE 23:26:16 26° NE 23:28:42 10° NE
USA 267 3.8 23:25:03 10° ENE 23:30:27 54° NNE 23:30:27 54° NNE
